FW6364 Weather Reports


time (UTC)temp
C
wind
direction
speed
KPH
gust
KPH
rain 1hr
cm
rain 24hr
cm
rain mn
cm
humidity
%
barometer
mb
20260510094535 6 360 1.6 8.0 0.00 0.30 0.00 82 1009.2
20260510093031 6 283 0.0 6.4 0.00 0.30 0.00 82 1009.0
20260510091547 6 277 3.2 8.0 0.00 0.30 0.00 84 1008.9
20260510090028 6 273 3.2 6.4 0.00 0.30 0.00 85 1008.6
20260510084526 6 360 1.6 3.2 0.00 0.30 0.00 85 1008.6
20260510083021 6 360 1.6 6.4 0.00 0.30 0.00 85 1008.4
20260510081532 6 282 1.6 4.8 0.00 0.30 0.00 85 1008.4
20260510080022 7 360 3.2 9.7 0.00 0.30 0.00 85 1008.1
20260510074515 7 360 3.2 8.0 0.00 0.30 0.00 86 1008.1
20260510073022 7 271 1.6 4.8 0.00 0.30 0.00 88 1007.9
20260510071515 7 279 0.0 0.0 0.00 0.30 0.00 88 1007.8
20260510070014 7 279 0.0 3.2 0.00 0.30 0.00 89 1007.6
20260510064536 7 290 0.0 6.4 0.00 0.30 0.00 89 1007.7
20260510063015 7 267 1.6 3.2 0.00 0.30 0.00 89 1007.4
20260510061507 7 265 0.0 4.8 0.00 0.30 0.00 89 1007.3
20260510060018 7 262 0.0 3.2 0.00 0.30 0.00 88 1007.1
20260510054504 7 264 0.0 4.8 0.00 0.30 0.00 88 1006.9
20260510053004 7 283 3.2 8.0 0.00 0.30 0.00 88 1007.0
20260510051609 7 278 3.2 9.7 0.00 0.30 0.00 88 1006.8
20260510044608 8 360 3.2 12.9 0.00 0.30 0.00 88 1005.9
20260510043054 8 360 4.8 12.9 0.00 0.30 0.00 89 1006.3
20260510041604 8 360 3.2 14.5 0.00 0.30 0.00 89 1005.9
20260510040048 7 360 4.8 12.9 0.00 0.30 0.30 89 1006.0
20260510034556 7 360 3.2 9.7 0.00 0.30 0.30 89 1005.9
20260510033049 7 360 3.2 9.7 0.00 0.30 0.30 89 1005.6
20260510031551 8 360 3.2 14.5 0.00 0.30 0.30 89 1005.6
20260510030055 8 360 3.2 9.7 0.00 0.30 0.30 90 1005.4
20260510024550 8 360 3.2 9.7 0.00 0.30 0.30 90 1005.1
20260510023044 8 360 3.2 12.9 0.00 0.30 0.30 89 1005.5
20260510021544 8 360 4.8 16.1 0.00 0.30 0.30 89 1005.5
20260510020044 8 360 4.8 12.9 0.00 0.30 0.30 89 1005.3
20260510014543 8 360 4.8 12.9 0.03 0.30 0.30 89 1005.1
20260510013051 8 360 3.2 9.7 0.05 0.30 0.30 90 1005.0
20260510011545 8 216 3.2 8.0 0.20 0.30 0.30 90 1004.6
20260510010042 8 360 3.2 12.9 0.30 0.30 0.30 89 1004.5
20260510004540 9 360 6.4 14.5 0.28 0.28 0.28 88 1004.3
20260510003052 10 219 4.8 12.9 0.25 0.25 0.25 88 1004.1
20260510001538 10 360 12.9 25.7 0.08 0.08 0.08 83 1005.0
20260510000037 10 360 3.2 14.5 0.00 0.00 0.00 79 1002.7
20260509234554 10 144 3.2 8.0 0.00 0.00 0.00 78 1002.5
20260509233042 10 136 1.6 6.4 0.00 0.00 0.00 81 1002.6
20260509231542 10 152 6.4 14.5 0.00 0.00 0.00 80 1002.8
20260509230032 11 360 3.2 9.7 0.00 0.00 0.00 79 1003.0
20260509224532 11 360 3.2 12.9 0.00 0.00 0.00 77 1003.2
20260509223032 13 360 1.6 6.4 0.00 0.00 0.00 75 1003.9
20260509221527 13 360 1.6 6.4 0.00 0.00 0.00 74 1004.1
20260509220029 13 151 1.6 8.0 0.00 0.00 0.00 74 1003.8
20260509214525 14 360 1.6 8.0 0.00 0.00 0.00 73 1003.7
20260509213025 14 90 3.2 9.7 0.00 0.00 0.00 72 1003.8
20260509211524 14 130 3.2 9.7 0.00 0.00 0.00 72 1003.8
20260509210026 15 360 3.2 9.7 0.00 0.00 0.00 72 1003.8
20260509204522 15 360 3.2 12.9 0.00 0.00 0.00 71 1003.9
20260509203030 15 360 3.2 16.1 0.00 0.00 0.00 70 1004.2
20260509201520 16 360 6.4 14.5 0.00 0.00 0.00 69 1004.2
20260509200016 15 135 4.8 12.9 0.00 0.00 0.00 72 1004.5
20260509194517 15 360 4.8 14.5 0.00 0.00 0.00 72 1004.7
20260509193013 15 360 3.2 12.9 0.00 0.00 0.00 72 1004.8
20260509191509 15 114 3.2 9.7 0.00 0.00 0.00 71 1005.0
20260509190016 15 360 3.2 16.1 0.00 0.00 0.00 73 1005.2
20260509184507 13 360 4.8 16.1 0.00 0.00 0.00 74 1005.7
20260509183100 13 153 6.4 16.1 0.00 0.00 0.00 74 1005.5
20260509181556 13 115 4.8 12.9 0.00 0.00 0.00 74 1006.1
20260509180101 12 108 3.2 14.5 0.00 0.00 0.00 77 1006.1
20260509174554 12 360 4.8 17.7 0.00 0.00 0.00 76 1006.3
20260509173056 12 199 3.2 14.5 0.00 0.00 0.00 78 1006.5
20260509171549 12 179 4.8 9.7 0.00 0.00 0.00 77 1006.5
20260509170058 12 164 3.2 12.9 0.00 0.00 0.00 76 1006.4
20260509164544 11 148 4.8 12.9 0.00 0.00 0.00 77 1006.4
20260509163055 11 147 6.4 12.9 0.00 0.00 0.00 76 1006.7
20260509161551 10 138 4.8 14.5 0.00 0.00 0.00 77 1007.1
20260509160038 10 173 6.4 14.5 0.00 0.00 0.00 76 1007.5
20260509154538 11 360 3.2 12.9 0.00 0.00 0.00 76 1007.5
20260509153035 10 107 4.8 12.9 0.00 0.00 0.00 77 1007.5
20260509151530 10 172 4.8 9.7 0.00 0.00 0.00 76 1007.9
20260509150029 10 154 3.2 11.3 0.00 0.00 0.00 77 1008.0
20260509144527 10 163 3.2 11.3 0.00 0.00 0.00 75 1008.1
20260509143033 10 150 1.6 16.1 0.00 0.00 0.00 75 1008.2
20260509141527 9 360 3.2 14.5 0.00 0.00 0.00 76 1008.3
20260509140022 8 360 1.6 11.3 0.00 0.00 0.00 76 1008.3
20260509134521 8 161 4.8 16.1 0.00 0.00 0.00 76 1008.4
20260509133017 8 103 3.2 12.9 0.00 0.00 0.00 77 1008.3
20260509131513 7 152 6.4 16.1 0.00 0.00 0.00 77 1008.5
20260509130012 7 130 4.8 12.9 0.00 0.00 0.00 79 1008.6
20260509124511 7 150 4.8 12.9 0.00 0.00 0.00 79 1008.6
20260509123011 7 164 1.6 6.4 0.00 0.00 0.00 78 1008.8
20260509121509 7 172 1.6 6.4 0.00 0.00 0.00 78 1009.0
20260509120009 6 140 3.2 9.7 0.00 0.00 0.00 79 1009.0
20260509114521 6 360 3.2 9.7 0.00 0.00 0.00 79 1009.0
20260509113007 7 360 3.2 12.9 0.00 0.00 0.00 78 1009.0
20260509111506 7 144 1.6 11.3 0.00 0.00 0.00 79 1008.9
20260509110003 6 165 3.2 8.0 0.00 0.00 0.00 79 1008.6
20260509104502 6 87 3.2 11.3 0.00 0.00 0.00 81 1008.6
20260509103100 6 165 1.6 6.4 0.00 0.00 0.00 81 1008.5
20260509101559 5 138 0.0 6.4 0.00 0.00 0.00 82 1008.5
20260509100058 5 148 1.6 6.4 0.00 0.00 0.00 81 1008.4